McMinnville, OR

5:19 PM PST on November 11, 2019 (GMT -0800)
McMinnville Municipal

Weather History for KMMV - October, 2019

Change the Weather History Date:

Monday, October 21, 2019

  Actual Average Record
Temperature  
Mean Temperature 57 °F 50 °F  
Max Temperature 62 °F 60 °F 80 °F (1929)
Min Temperature 51 °F 40 °F 26 °F (1928)
Degree Days  
Heating Degree Days 8 15  
Month to date heating degree days 295 245  
Since 1 July heating degree days 433 461  
Cooling Degree Days 0 0  
Month to date cooling degree days 0 0  
Year to date cooling degree days 282 214  
Growing Degree Days 6 (Base 50)    
Moisture  
Dew Point 52 °F    
Average Humidity 83    
Maximum Humidity 93    
Minimum Humidity 72    
Precipitation  
Precipitation T in 0.12 in 1.13 in (1954)
Month to date precipitation 2.47 1.89  
Year to date precipitation 22.42 25.60  
Sea Level Pressure  
Sea Level Pressure 30.26 in    
Wind  
Wind Speed 9 mph (SSW)    
Max Wind Speed 22 mph    
Max Gust Speed 27 mph    
Visibility 10 miles    
Events Rain    
T = Trace of Precipitation, MM = Missing Value Source: NWS Daily Summary

Daily Weather History Graph

Daily Weather History Graph

Search for Another Location

Airport or City:

Astronomy

Oct. 21, 2019 Rise Set
Actual Time 7:36 AM PDT 6:17 PM PDT
Civil Twilight 7:06 AM PDT 6:47 PM PDT
Nautical Twilight 6:31 AM PDT 7:21 PM PDT
Astronomical Twilight 5:57 AM PDT 7:55 PM PDT
Moon No Moon Rise 3:08 PM PDT (10/21)
Length of Visible Light 11h 41m
Length of Day
10h 41m
Waning Gibbous, 47% of the Moon is Illuminated
Oct 21
Waning Gibbous
Oct 27
New
Nov 4
First Quarter
Nov 12
Full
Nov 19
Last Quarter

Hourly Weather History & Observations

Time (PDT) Temp. Dew Point Humidity Pressure Visibility Wind Dir Wind Speed Gust Speed Precip Events Conditions
12:53 AM 51.1 °F 48.9 °F 92% 30.19 in 10.0 mi SW 5.8 mph - N/A   Mostly Cloudy
1:53 AM 53.1 °F 48.9 °F 86% 30.19 in 10.0 mi SSW 6.9 mph - N/A   Overcast
2:53 AM 52.0 °F 48.9 °F 89% 30.20 in 10.0 mi SSW 6.9 mph - N/A   Overcast
3:53 AM 53.1 °F 48.9 °F 86% 30.21 in 10.0 mi South 8.1 mph - N/A   Overcast
4:53 AM 53.1 °F 50.0 °F 89% 30.22 in 10.0 mi South 5.8 mph - N/A   Overcast
5:53 AM 53.1 °F 50.0 °F 89% 30.24 in 10.0 mi South 5.8 mph - N/A   Overcast
6:53 AM 53.1 °F 50.0 °F 89% 30.25 in 10.0 mi South 3.5 mph - N/A   Overcast
7:53 AM 53.1 °F 50.0 °F 89% 30.25 in 10.0 mi SW 3.5 mph - N/A   Overcast
8:19 AM 53.1 °F 48.9 °F 86% 30.25 in 10.0 mi SSW 8.1 mph - N/A   Mostly Cloudy
8:53 AM 54.0 °F 51.1 °F 90% 30.26 in 10.0 mi WSW 4.6 mph - N/A   Mostly Cloudy
9:53 AM 57.0 °F 51.1 °F 81% 30.27 in 10.0 mi SW 8.1 mph - N/A   Overcast
10:53 AM 59.0 °F 52.0 °F 78% 30.27 in 10.0 mi SSW 10.4 mph - N/A   Mostly Cloudy
11:53 AM 60.1 °F 51.1 °F 72% 30.27 in 10.0 mi SSW 12.7 mph - N/A   Overcast
12:06 PM 60.1 °F 52.0 °F 75% 30.26 in 10.0 mi SSW 12.7 mph - N/A   Overcast
12:15 PM 60.1 °F 52.0 °F 75% 30.26 in 10.0 mi SSW 13.8 mph 20.7 mph N/A   Overcast
12:53 PM 60.1 °F 52.0 °F 75% 30.25 in 10.0 mi South 16.1 mph 25.3 mph N/A   Overcast
1:14 PM 61.0 °F 52.0 °F 72% 30.26 in 10.0 mi SSW 19.6 mph 25.3 mph N/A   Overcast
1:41 PM 60.1 °F 52.0 °F 75% 30.26 in 10.0 mi SSW 16.1 mph 25.3 mph N/A   Overcast
1:53 PM 60.1 °F 53.1 °F 78% 30.26 in 10.0 mi SSW 11.5 mph - N/A   Overcast
2:53 PM 59.0 °F 54.0 °F 83% 30.27 in 6.0 mi SSW 8.1 mph - 0.00 in Rain Light Rain
3:53 PM 60.1 °F 54.0 °F 80% 30.27 in 10.0 mi SSW 16.1 mph - 0.00 in   Overcast
4:53 PM 60.1 °F 54.0 °F 80% 30.27 in 10.0 mi South 15.0 mph 24.2 mph N/A   Overcast
5:53 PM 60.1 °F 54.0 °F 80% 30.27 in 10.0 mi South 15.0 mph - N/A   Overcast
6:53 PM 59.0 °F 54.0 °F 83% 30.28 in 10.0 mi South 16.1 mph - N/A   Overcast
7:13 PM 57.9 °F 54.0 °F 87% 30.28 in 10.0 mi South 13.8 mph - N/A   Mostly Cloudy
7:53 PM 59.0 °F 54.0 °F 83% 30.28 in 10.0 mi South 13.8 mph - N/A   Overcast
8:07 PM 59.0 °F 54.0 °F 83% 30.28 in 10.0 mi South 12.7 mph - N/A   Overcast
8:33 PM 59.0 °F 54.0 °F 83% 30.28 in 10.0 mi SSW 10.4 mph - N/A   Overcast
8:53 PM 59.0 °F 54.0 °F 83% 30.29 in 10.0 mi SSW 10.4 mph - N/A   Overcast
9:53 PM 59.0 °F 54.0 °F 83% 30.29 in 10.0 mi SSW 9.2 mph - N/A   Overcast
10:53 PM 59.0 °F 54.0 °F 83% 30.28 in 10.0 mi South 5.8 mph - N/A   Overcast
11:50 PM 60.8 °F 53.6 °F 77% 30.28 in 10.0 mi SSW 15.0 mph - N/A   Overcast
11:53 PM 60.1 °F 54.0 °F 80% 30.27 in 10.0 mi SSW 13.8 mph - N/A   Overcast